Overview Statistics Trail Chart Weather Telemetry Raw packets
 

This is the latest recevied weather packets stored in our database for station/object SP7RCS-11. If no packets are shown the sender has not sent any weather packets the latest 10 day(s).

<< 1 2 3 >>
Time Temp. Humidity Pressure Rain* Wind** Luminosity Snow
1777835710 24.44° C 26% 1008.7 hPa - - - -
1777834809 25.56° C 25% 1008.5 hPa - - - -
1777833909 25.56° C 25% 1008.4 hPa - - - -
1777833009 26.11° C 24% 1008.5 hPa - - - -
1777832109 27.22° C 23% 1008.3 hPa - - - -
1777831209 27.22° C 22% 1008.1 hPa - - - -
1777830308 28.33° C 22% 1008.1 hPa - - - -
1777829407 29.44° C 21% 1008.1 hPa - - - -
1777828507 29.44° C 20% 1008 hPa - - - -
1777827602 30.56° C 19% 1008.1 hPa - - - -
1777826702 31.11° C 18% 1008.1 hPa - - - -
1777825802 31.67° C 17% 1008 hPa - - - -
1777824901 32.22° C 16% 1008.1 hPa - - - -
1777824001 32.78° C 16% 1008.2 hPa - - - -
1777823101 32.78° C 15% 1008.3 hPa - - - -
1777822200 33.89° C 15% 1008.5 hPa - - - -
1777821300 35° C 15% 1008.6 hPa - - - -
1777820400 35.56° C 15% 1008.7 hPa - - - -
1777819500 35.56° C 15% 1008.8 hPa - - - -
1777818597 35.56° C 14% 1008.9 hPa - - - -
1777817697 35.56° C 14% 1009.3 hPa - - - -
1777816795 37.22° C 14% 1009.4 hPa - - - -
1777814995 36.67° C 14% 1009.9 hPa - - - -
1777814093 37.22° C 14% 1010.1 hPa - - - -
1777813193 36.67° C 14% 1010.2 hPa - - - -

* Rain since midnight (hover to see other rain measurements)
** Current wind speed in m/s (hover to see current wind gust speed)